Weather History for Hill City, KS

Change the Weather History Date:

Monday, January 7, 2013

  Actual Average Record
Temperature  
Mean Temperature 31 °F 29 °F  
Max Temperature 42 °F 42 °F 72 °F (1965)
Min Temperature 19 °F 16 °F -13 °F (1912)
Degree Days  
Heating Degree Days 35    
Moisture  
Dew Point 23 °F    
Average Humidity 73    
Maximum Humidity 92    
Minimum Humidity 53    
Precipitation  
Precipitation 0.00 in 0.01 in 0.00 in (2014)
Month to date precipitation T 0.06  
Year to date precipitation T 0.06  
Sea Level Pressure  
Sea Level Pressure 30.02 in    
Wind  
Wind Speed 8 mph (West)    
Max Wind Speed 17 mph    
Max Gust Speed 24 mph    
Visibility 10 miles    
Events      
T = Trace of Precipitation, MM = Missing Value Source: NWS Daily Summary

Daily Weather History Graph

Daily Weather History Graph

Search for Another Location

Airport:

Trip Planner

Search our weather history database for the weather conditions in past years. The results will help you decide how hot, cold, wet, or windy it might be!

Date:

Astronomy

Jan. 07, 2013 Rise Set
Actual Time 7:59 AM CST 5:32 PM CST
Civil Twilight 7:29 AM CST 6:02 PM CST
Nautical Twilight 6:56 AM CST 6:35 PM CST
Astronomical Twilight 6:23 AM CST 7:08 PM CST
Moon 3:25 AM CST (1/7) 1:44 PM CST (1/7)
Length of Visible Light 10h 32m
Length of Day
9h 32m
Waning Crescent, 22% of the Moon is Illuminated
Jan 7
Waning Crescent
Jan 11
New
Jan 18
First Quarter
Jan 26
Full
Feb 3
Last Quarter

Hourly Weather History & Observations

Time (CST) Temp. Windchill Dew Point Humidity Pressure Visibility Wind Dir Wind Speed Gust Speed Precip Events Conditions
12:53 AM 34.0 °F 28.8 °F 24.1 °F 67% 30.05 in 10.0 mi Variable 5.8 mph - N/A   Clear
1:53 AM 37.0 °F 27.4 °F 25.0 °F 62% 30.03 in 10.0 mi SW 17.3 mph 24.2 mph N/A   Clear
2:53 AM 35.1 °F 25.9 °F 25.0 °F 67% 30.03 in 10.0 mi SW 13.8 mph 24.2 mph N/A   Clear
3:53 AM 35.1 °F 25.9 °F 24.1 °F 64% 30.02 in 10.0 mi SW 13.8 mph - N/A   Clear
5:53 AM 33.1 °F 23.9 °F 24.1 °F 70% 30.01 in 10.0 mi SSW 12.7 mph - N/A   Clear
6:53 AM 33.1 °F 24.4 °F 23.0 °F 66% 30.03 in 10.0 mi WSW 11.5 mph - N/A   Clear
7:53 AM 32.0 °F 23.6 °F 23.0 °F 69% 30.04 in 10.0 mi West 10.4 mph - N/A   Clear
8:53 AM 30.9 °F 24.3 °F 24.1 °F 76% 30.04 in 10.0 mi SW 6.9 mph - N/A   Clear
9:53 AM 30.9 °F 23.5 °F 24.1 °F 76% 30.07 in 10.0 mi West 8.1 mph - N/A   Clear
10:53 AM 36.0 °F 29.6 °F 24.1 °F 62% 30.05 in 10.0 mi WSW 8.1 mph - N/A   Clear
11:53 AM 39.0 °F 34.8 °F 25.0 °F 57% 30.03 in 10.0 mi WNW 5.8 mph - N/A   Clear
1:53 PM 39.9 °F 34.5 °F 25.0 °F 55% 29.99 in 10.0 mi North 8.1 mph - N/A   Clear
2:53 PM 39.9 °F 36.7 °F 24.1 °F 53% 29.99 in 10.0 mi North 4.6 mph - N/A   Clear
3:53 PM 39.0 °F 33.4 °F 26.1 °F 60% 29.99 in 10.0 mi NNW 8.1 mph - N/A   Clear
5:53 PM 30.9 °F - 24.1 °F 76% 29.99 in 10.0 mi Calm Calm - N/A   Clear
6:53 PM 25.0 °F - 21.9 °F 88% 30.02 in 10.0 mi Calm Calm - N/A   Clear
7:53 PM 24.1 °F 19.7 °F 21.0 °F 88% 30.02 in 10.0 mi NNW 3.5 mph - N/A   Clear
8:53 PM 23.0 °F 18.4 °F 21.0 °F 92% 30.01 in 9.0 mi WSW 3.5 mph - N/A   Clear
9:53 PM 23.0 °F - 21.0 °F 92% 29.99 in 10.0 mi Calm Calm - N/A   Clear
10:53 PM 21.0 °F 16.2 °F 19.0 °F 92% 29.97 in 9.0 mi West 3.5 mph - N/A   Clear
11:53 PM 21.0 °F 16.2 °F 19.0 °F 92% 29.96 in 9.0 mi WNW 3.5 mph - N/A   Clear